Location: Maynard F. Jordan Observatory
(44.9000°N, 68.6700°W)
Time: 01:10:04
(UTC-05:00)

Cosmos 2297 Rocket - Visible Passes

Search period start: 29 November 2014 00:00
Search period end: 09 December 2014 00:00
Orbit: 838 x 845 km, 71.0° (Epoch: 27 November)

Date Brightness Start Highest point End Pass type
(mag) Time Alt. Az. Time Alt. Az. Time Alt. Az.
29 Nov 4.6 04:25:47 10° N 04:28:51 15° NE 04:31:55 10° ENE visible
29 Nov 2.6 06:08:21 10° NNW 06:14:01 69° ENE 06:19:39 10° SE visible
30 Nov 4.7 04:10:51 10° N 04:13:46 14° NE 04:16:41 10° ENE visible
30 Nov 2.6 05:53:20 10° NNW 05:58:59 66° ENE 06:04:36 10° SE visible
01 Dec 4.7 03:55:57 10° N 03:58:41 14° NE 04:01:26 10° ENE visible
01 Dec 2.7 05:38:19 10° NNW 05:43:57 63° ENE 05:49:33 10° SE visible
02 Dec 4.7 03:41:02 10° NNE 03:43:36 13° NE 03:46:10 10° ENE visible
02 Dec 2.7 05:23:18 10° NNW 05:28:55 60° ENE 05:34:30 10° SE visible
03 Dec 4.8 03:26:22 10° NNE 03:28:31 13° NE 03:30:53 10° ENE visible
03 Dec 2.8 05:08:17 10° NNW 05:13:53 57° ENE 05:19:26 10° SE visible
04 Dec 4.8 03:12:06 11° NNE 03:13:26 12° NE 03:15:35 10° ENE visible
04 Dec 2.8 04:53:56 13° NNW 04:58:51 55° ENE 05:04:22 10° SE visible
05 Dec 4.9 02:57:54 12° NNE 02:58:20 12° NE 03:00:15 10° ENE visible
05 Dec 2.9 04:39:45 18° NNW 04:43:48 52° ENE 04:49:18 10° SE visible
06 Dec 5.0 02:43:47 11° NE 02:43:47 11° NE 02:44:53 10° NE visible
06 Dec 2.9 04:25:38 25° N 04:28:46 50° ENE 04:34:14 10° SE visible
06 Dec 3.2 06:07:52 10° NW 06:12:30 27° WSW 06:17:07 10° SSW visible
07 Dec 3.0 04:11:35 33° N 04:13:43 47° ENE 04:19:09 10° SE visible
07 Dec 3.1 05:53:27 13° NW 05:57:30 28° WSW 06:02:12 10° SSW visible
07 Dec 4.3 19:01:08 10° SSW 19:02:05 15° S 19:02:05 15° S visible
08 Dec 3.1 03:57:38 41° NNE 03:58:40 45° ENE 04:04:04 10° SE visible
08 Dec 3.0 05:39:29 19° WNW 05:42:30 29° WSW 05:47:17 10° SSW visible
08 Dec 3.7 18:46:08 10° S 18:48:28 25° S 18:48:28 25° S visible
